www.pogodaiklimat.ru

Погода и климат >> Архив погоды >> Казахстан >> Кулалы Остров


ПОГОДА на Кулалы Острове

  • Прогноз погоды на Кулалы Острове
  • Монитор погоды на Кулалы Острове

АРХИВ ПОГОДЫ на Кулалы Острове

Время (UTC), дата Ветер
(напр.,м/с)
 
Видим.   Явления Облачность Т
(С)
Тd
(С)
f
(%)
Тe
(С)
Тes
(С)
Комфортность P
(гПа)
Po
(гПа)
Тmin
(С)
Tmax
(С)
R
(мм)
R24
(мм)
S
(см)
00 18.03 С 11 20 км 9/9 600 м
[Sc]
+3.1 +2.1 93 -4 -4 1013.9 1016.9
03 18.03 СЗ 7 20 км 10/0
[As op]
+3.8 +2.0 88 -2 -2 1016.2 1019.2
06 18.03 СЗ 6 20 км 9/9 600 м
[Sc]
+4.2 +1.9 85 -1 -1 1018.0 1021.0 +2.9
09 18.03 СЗ 7 20 км 9/9 600 м
[Sc]
+4.8 +1.5 79 -1 -0 1018.7 1021.7
12 18.03 С 6 20 км 9/9 600 м
[Sc]
+5.2 +1.7 78 0 +1 1020.1 1023.1
15 18.03 С 3 20 км 9/9 600 м
[Sc]
+3.8 +0.9 81 0 0 1021.3 1024.3 +5.5
18 18.03 СЗ 3 20 км 9/9 600 м
[Sc]
+4.8 +3.1 89 +1 +1 1022.3 1025.4 +5.5
21 18.03 С 5 20 км 9/9 600 м
[Cb calv]
+2.6 -0.4 81 -3 -3 1023.9 1027.0
00 19.03 С 4 20 км 9/9 600 м
[Sc]
+3.0 +0.9 86 -2 -2 1022.8 1025.9
03 19.03 С 5 20 км 9/9 600 м
[Cb calv]
+2.6 -0.4 81 -3 -3 1023.9 1027.0
06 19.03 С 7 20 км 9/9 600 м
[Sc]
+1.4 -0.8 85 -5 -5 1024.3 1027.9 +1.8
09 19.03 С 4 20 км 9/9 600 м
[Sc]
+1.6 -1.5 80 -3 -3 1024.8 1027.9
12 19.03 СЗ 5 20 км 9/9 600 м
[Sc]
+1.9 -0.9 82 -4 -3 1024.5 1027.6
15 19.03 С 4 20 км 9/9 600 м
[Sc]
+2.0 -1.1 80 -3 -3 1024.9 1023.0 +2.6
18 19.03 С 3 20 км 9/9 600 м
[Sc]
+2.6 -0.4 81 -1 -1 1025.5 1028.6 +2.6
21 19.03 С 2 20 км 9/9 600 м
[Sc]
+2.4 -0.3 82 -1 -1 1025.8 1028.9
00 20.03 С 4 20 км 9/9 600 м
[Sc]
+2.0 -0.5 83 -3 -3 1027.0 1029.1
03 20.03 С 7 20 км 9/9 600 м
[Sc]
+2.3 +1.2 92 -4 -4 1023.7 1026.8
06 20.03 С 6 20 км 9/9 600 м
[Sc]
+3.6 +1.0 83 -2 -2 1023.6 1026.7 +1.8
09 20.03 СЗ 6 20 км 9/9 600 м
[Sc]
+4.7 +1.1 77 -0 0 1023.1 1026.2
12 20.03 С 5 20 км 9/9 600 м
[Sc]
+4.4 +1.1 79 -0 -0 1022.7 1025.8
15 20.03 20 км н/о +3.3 +0.7 83 -1 -1 1022.2 1025.3 +5.0
18 20.03 СЗ 2 20 км 9/9 600 м
[Sc]
+4.2 +2.2 87 +1 +1 1022.9 1026.0 +5.0
21 20.03 СЗ 4 20 км 9/9 600 м
[Sc]
+3.9 +1.6 85 -1 -1 1023.1 1026.2
00 21.03 СЗ 3 20 км 9/9 600 м
[Sc]
+3.7 +1.7 87 -0 -0 1023.7 1026.8
03 21.03 СЗ 3 20 км 9/9 600 м
[Sc]
+4.4 +2.2 86 +1 +1 1021.8 1024.9
06 21.03 С 3 20 км ясно +5.9 +2.7 80 +3 +8 1022.3 1025.4 +3.5
09 21.03 З 2 20 км ясно +6.4 +3.6 82 +4 +16 опасность
простуды
1022.3 1025.4
12 21.03 З 4 20 км ясно +6.6 +3.5 81 +3 +6 1022.5 1025.6 +7.0
15 21.03 З 2 20 км ясно +5.7 +3.0 83 +3 +3 1020.7 1023.8 +7.0
18 21.03 СЗ 3 20 км ясно +4.9 +3.7 92 +1 +1 1020.9 1023.9 +7.0
21 21.03 З 3 20 км ясно +4.8 +3.6 92 +1 +1 1021.1 1024.1
00 22.03 З 2 20 км ясно +4.6 +2.9 89 +2 +2 1020.5 1023.5
03 22.03 ЮЗ 6 20 км 4/0
[Ac trans]
+7.7 +3.8 76 +4 +4 1020.0 1023.0
06 22.03 Ю 4 20 км ясно +6.2 +3.7 84 +2 +7 1020.6 1023.5 +4.4
09 22.03 ЮЗ 6 20 км 4/0
[Ac trans]
+7.7 +3.8 76 +4 +7 1020.0 1023.0
12 22.03 ЮЗ 3 20 км 9/9 600 м
[Sc]
+7.0 +4.6 85 +4 +4 1018.8 1021.8
15 22.03 ЮЗ 6 20 км 9/9 600 м
[Sc]
+6.2 +4.1 86 +1 +1 1018.7 1021.7 +8.0
18 22.03 ЮЗ 6 20 км 9/9 600 м
[Sc]
+6.3 +3.2 81 +2 +2 1019.3 1022.3 +8.0
21 22.03 Ю 5 20 км ясно +4.6 +3.1 90 -0 -0 1016.9 1019.9
00 23.03 ЮЗ 6 20 км ясно +5.2 +3.5 89 0 0 1017.7 1020.7
03 23.03 Ю 5 20 км ясно +4.6 +3.1 90 -0 -0 1016.9 1019.9
06 23.03 Ю 6 20 км 3/0
[Ci fib]
+6.9 +3.9 81 +2 +5 1017.6 1020.6 +4.3
09 23.03 Ю 7 20 км 9/9 600 м
[Sc]
+8.1 +4.5 78 +4 +4 1017.4 1020.4
12 23.03 Ю 5 20 км 6/0
[Ci fib]
+8.2 +4.3 76 +5 +7 1016.4 1019.4
15 23.03 ЮВ 3 20 км 8/0
[As op Ci ing]
+5.8 +2.2 78 +3 +3 1015.7 1018.7 +8.5
18 23.03 СВ 6 20 км 8/0
[Ci sp]
+7.1 +4.6 84 +3 +3 1015.8 1018.8 +8.5
21 23.03 СВ 5 20 км 6/0
[Ci sp]
+6.9 +4.9 87 +3 +3 1016.3 1019.3
00 24.03 В 7 20 км 8/0
[Ci sp]
+6.3 +4.6 89 +1 +1 1016.9 1019.9
03 24.03 В 5 20 км 9/0
[Ci sp]
+7.4 +5.0 85 +3 +4 1015.0 1018.0
06 24.03 В 6 20 км 9/0
[Ac trans Ci sp]
+9.7 +5.0 73 +6 +8 1013.4 1016.4 +5.7
09 24.03 ЮЗ 4 20 км 9/0
[Ci sp]
+10.5 +5.8 73 +8 +15 1012.6 1015.6
12 24.03 ЮЗ 2 20 км 9/0
[Ci sp]
+9.0 +5.9 81 +7 +12 1011.3 1014.2
18 24.03 СЗ 8 20 км 10/10 600 м
[Sc]
+5.3 +3.4 88 -1 -1 1013.5 1016.5 +10.8

 

Местоположение метеостанции Кулалы Остров (Мангистауская область, Казахстан): широта 45.01 долгота 50.03 высота над уровнем моря -24 м.

В архиве по умолчанию представлена погода на Кулалы Острове за последнюю неделю. Архивные данные за месяц целиком и за предыдущие месяцы, начиная с января 2011 года, Вы можете получить, выбрав интересующий диапазон дат из раскрывающегося списка и нажав кнопку "Ввод!".


*Определитесь, кто Вы:
робот инопланетянин человек

Внимание! Время в таблицах - всемирное. Для получения местного времени необходимо прибавить поправку, которая равна 4 ч.

Смотрите также архив погоды в соседних городах и на ближайших метеорологических станциях:

Погода в Форте-Шевченко (Мангистауская область, Казахстан) (54 км)
Погода в Кызане (Мангистауская область, Казахстан) (156 км)
Погода в Зеленге (Астраханская область, Россия) (170 км)
Погода в Тущыбеке (Мангистауская область, Казахстан) (180 км)
Погода в Актау (Мангистауская область, Казахстан) (180 км)
Погода в Ганюшкино (Атырауская область, Казахстан) (186 км)
Погода в Исатай (Атырауская область, Казахстан) (199 км)
Погода на Острове Тюлений (Дагестан, Россия) (210 км)
Погода в Астрахани (Астраханская область, Россия) (213 км)
Погода в Лагани (Калмыкия, Россия) (214 км)

Пояснения к столбцам:

Ветер - указаны скорость ветра в м/с - средняя за 10 мин, порывы в срок и между сроками (в фигурных скобках) и направление, откуда дует ветер: С - северный, СВ - северо-восточный, В - восточный, ЮВ - юго-восточный, Ю - южный, ЮЗ - юго-западный, З - западный, СЗ - северо-западный.
Видимость - горизонтальная дальность видимости в метрах или километрах. При видимости от 1 до 10 км при отсутствии осадков обычно наблюдается дымка, при ухудшении видимости до 1 км и менее - туман. В сухую погоду видимость может ухудшаться дымом, пылью или мглою.
Явления - указаны атмосферные явления, наблюдавшиеся в срок или в последний час перед сроком; фигурными скобками обозначены явления, наблюдавшиеся между сроками (за 1-3 часа до срока); квадратными скобками обозначены град или гололедные отложения с указанием их диаметра в мм.
Облачность - указаны через наклонную черту общая и нижняя облачность в баллах и высота нижней границы облаков в метрах; квадратными скобками обозначены формы облаков: Ci - перистые, Cs - перисто-слоистые, Cc - перисто-кучевые, Ac - высококучевые, As - высокослоистые, Sc - слоисто-кучевые, Ns - слоисто-дождевые, Cu - кучевые, Cb - кучево-дождевые. Подробнее классификацию облаков см. в Атласе облаков (PDF).
T - Температура воздуха - температура, измеренная на высоте 2 м над землей.
Td - Температура точки росы - температура, при понижении до которой содержащийся в воздухе водяной пар достигнет насыщения.
f - Относительная влажность воздуха - влажноcть воздуха, измеренная на высоте 2 м над землей.
Te - Эффективная температура - температура, которую ощущает одетый по сезону человек в тени. Характеристика душности погоды. При расчете учитывается влияние влажности воздуха и скорости ветра на теплоощущения человека.
Tes - Эффективная температура на солнце - температура, которую ощущает человек, с поправкой на солнечный нагрев. Характеристика знойности погоды. Зависит от высоты солнца над горизонтом, облачности и скорости ветра. Ночью, в пасмурную погоду, а также при ветре 12 м/с и более поправка равна нулю.
P - Атмосферное давление - приведенное к уровню моря атмосферное давление.
Po - Атмосферное давление - измеренное на уровне метеостанции атмосферное давление.
Tmin - Минимальная температура - минимум температуры воздуха на высоте 2 м над землей.
Tmax - Максимальная температура - максимум температуры воздуха на высоте 2 м над землей.
R - Количество осадков - Количество выпавших осадков за период времени, мм. При наведении курсора мыши на число - период времени, за который выпало указанное количество осадков.
R24 - Количество осадков - Количество выпавших осадков за 24 часа, мм.
S - Снежный покров - Высота снежного покрова, см. При наведении курсора мыши на число - состояние снежного покрова и степень покрытия местности в баллах.